{"data":{"norad_id":62913,"epoch":"2026-05-24T16:40:01.390656Z","epoch_age_seconds":91497,"freshness":"FRESH","line1":"1 62913U 25027G   26144.69446054  .00187966  00000+0  14289-2 0  9994","line2":"2 62913  43.0031 249.7151 0004167 265.0166  95.0226 15.70942519 75107","mean_motion":15.70942519,"eccentricity":0.0004167,"inclination_deg":43.0031,"raan_deg":249.7151,"arg_perigee_deg":265.0166,"mean_anomaly_deg":95.0226,"bstar":0.0014289,"rev_number":7510,"period_min":91.664716091372,"perigee_km":353.39585992924,"apogee_km":359.00825810102,"semimajor_km":6734.3390590151,"source":"CELESTRAK","updated_at":"2026-05-25T13:38:19.819620Z"}}